Miscellaneous Local Product
Issued by NWS Hastings, NE

Home | Current Version | Previous Version | Graphics & Text | Print | Product List | Glossary On
Versions: 1 2 3 4 5 6 7 8 9 10 11 12 13 14 15 16 17 18 19 20 21 22 23 24 25 26 27 28 29 30 31 32 33 34 35 36 37 38 39 40 41 42 43 44 45 46 47 48 49 50
972
AXUS43 KGID 210302
MISGRI

GID CWA HOURLY WEATHER ROUNDUP
NATIONAL WEATHER SERVICE HASTINGS NE
1000 PM CDT WED SEP 20 2017

NOTE: "FAIR" INDICATES FEW OR NO CLOUDS BELOW 12,000 FEET WITH NO
SIGNIFICANT WEATHER AND/OR OBSTRUCTIONS TO VISIBILITY.

...SOUTH CENTRAL NEBRASKA...

CITY           SKY/WX    TMP DP  RH WIND       PRES   REMARKS
GRAND ISLAND   CLEAR     59  51  75 E5        29.91R
HASTINGS       CLEAR     61  47  59 E6        29.91S
KEARNEY        CLEAR     58  46  64 E5        29.92R
ORD            CLEAR     53  47  79 CALM      29.89S
YORK           CLEAR     61  50  67 E8        29.90S
AURORA         CLEAR     58  50  73 E7        29.90S
LEXINGTON      CLEAR     58  45  61 CALM      29.90S
HOLDREGE       CLEAR     56  42  58 E6        29.91R
HEBRON         CLEAR     65  54  67 CALM      29.88S

...NEBRASKA PANHANDLE...

CITY           SKY/WX    TMP DP  RH WIND       PRES   REMARKS
CHADRON        CLEAR     66  32  28 S16       29.79R
ALLIANCE       CLEAR     54  37  52 SE10      29.85S
SCOTTSBLUFF    CLEAR     62  35  36 E15       29.83R
SIDNEY         CLEAR     62  31  31 S17       29.88R

...WESTERN AND NORTH CENTRAL NEBRASKA...

CITY           SKY/WX    TMP DP  RH WIND       PRES   REMARKS
VALENTINE      CLEAR     63  37  38 S12       29.86R
AINSWORTH      CLEAR     56  43  61 S8        29.89R
ONEILL         CLEAR     61  48  62 SE8       29.90S
BROKEN BOW     CLEAR     52  42  69 CALM      29.91R
IMPERIAL       CLEAR     55  35  47 SE8       29.88S
NORTH PLATTE   CLEAR     54  44  69 E9        29.90R
MCCOOK         CLEAR     60  39  45 SE8       29.89S

...EASTERN NEBRASKA...

CITY           SKY/WX    TMP DP  RH WIND       PRES   REMARKS
NORFOLK        CLEAR     57  50  77 SE6       29.91R
SO SIOUX CITY  CLEAR     55  52  89 CALM      29.90R
TEKAMAH        CLEAR     56  52  86 NW7       29.89R
COLUMBUS       CLEAR     54  51  90 NE3       29.91R
ALBION         CLEAR     55  53  91 CALM      29.92R
OMAHA EPPLEY   CLEAR     61  54  77 N7        29.89R
OFFUTT AFB     CLEAR     63  53  69 NE5       29.87R
MILLARD        CLEAR     67  53  60 CALM      29.89R
LINCOLN        CLEAR     63  52  67 N5        29.89S
NEBRASKA CITY  CLEAR     68  58  69 N5        29.88R
BEATRICE       CLEAR     66  56  70 NE7       29.88R
FALLS CITY     CLEAR     73  63  70 N6        29.84R

...NORTHERN KANSAS...

CITY           SKY/WX    TMP DP  RH WIND       PRES   REMARKS
GOODLAND       CLEAR     59  36  42 SE10      29.90R
HILL CITY      CLEAR     62  37  39 E5        29.89R
NORTON         CLEAR     57  36  44 E6        29.88S
PHILLIPSBURG   CLEAR     64  45  48 NE6       29.88S
SMITH CENTER   CLEAR     64  45  48 NE9       29.88S
HAYS           CLEAR     66  51  58 NE9       29.86S
RUSSELL        CLEAR     68  53  58 NE7       29.85R
CONCORDIA      CLEAR     68  58  70 E3        29.86R
SALINA         CLEAR     75  61  61 N3        29.83R
TOPEKA         MOCLDY    79  76  90 CALM      29.82R



USA.gov is the U.S. government's official web portal to all federal, state and local government web resources and services.